• In Belarus
  • List of Countries
  • For 7 days
  • Water Temperature
  • Satellite Maps
  • Weather Map
  • Weather Widgets
  • user-avatar
    Login

    Hourly Weather Herāt

    Today, 16 January, Wednesday

    Time Temperature Precipitation Wind Pressure Humidity
    00:00 +11°C° 0 mm 0 mps 679 mmHg 34%
    01:00 +10°C° 0 mm 0 mps 679 mmHg 37%
    02:00 +11°C° 0 mm 1 mps 679 mmHg 37%
    03:00 +11°C° 0 mm 1 mps 679 mmHg 37%
    04:00 +10°C° 0 mm 2 mps 679 mmHg 34%
    05:00 +9°C° 0 mm 2 mps 679 mmHg 35%
    06:00 +9°C° 0 mm 3 mps 680 mmHg 37%
    07:00 +8°C° 0 mm 4 mps 680 mmHg 38%
    08:00 +11°C° 0 mm 4 mps 680 mmHg 36%
    09:00 +12°C° 0 mm 4 mps 681 mmHg 34%
    10:00 +14°C° 0 mm 4 mps 681 mmHg 33%
    11:00 +16°C° 0 mm 3 mps 681 mmHg 31%
    12:00 +17°C° 0 mm 3 mps 681 mmHg 29%
    13:00 +18°C° 0 mm 2 mps 681 mmHg 27%
    14:00 +18°C° 0 mm 3 mps 680 mmHg 27%
    15:00 +18°C° 0 mm 3 mps 680 mmHg 27%
    16:00 +18°C° 0 mm 3 mps 680 mmHg 27%
    17:00 +16°C° 0 mm 3 mps 680 mmHg 30%
    18:00 +14°C° 0 mm 4 mps 679 mmHg 32%
    19:00 +13°C° 0 mm 4 mps 679 mmHg 34%
    20:00 +13°C° 0 mm 4 mps 679 mmHg 34%
    21:00 +12°C° 0 mm 4 mps 679 mmHg 34%
    22:00 +12°C° 0 mm 4 mps 679 mmHg 34%
    23:00 +12°C° 0 mm 4 mps 679 mmHg 33%

    Tomorrow, 17 January, Thursday

    Time Temperature Precipitation Wind Pressure Humidity
    00:00 +12°C° 0 mm 4 mps 679 mmHg 32%
    01:00 +12°C° 0 mm 5 mps 678 mmHg 31%
    02:00 +10°C° 0 mm 5 mps 678 mmHg 33%
    03:00 +11°C° 0 mm 4 mps 678 mmHg 34%
    04:00 +11°C° 0 mm 4 mps 677 mmHg 35%
    05:00 +10°C° 0 mm 5 mps 677 mmHg 36%
    06:00 +10°C° 0 mm 5 mps 677 mmHg 37%
    07:00 +10°C° 0 mm 5 mps 677 mmHg 37%
    08:00 +13°C° 0 mm 6 mps 678 mmHg 35%
    09:00 +15°C° 0 mm 7 mps 678 mmHg 32%
    10:00 +17°C° 0 mm 8 mps 678 mmHg 29%
    11:00 +18°C° 0 mm 8 mps 678 mmHg 28%
    12:00 +19°C° 0 mm 9 mps 677 mmHg 27%
    13:00 +21°C° 0 mm 10 mps 677 mmHg 26%
    14:00 +21°C° 0 mm 9 mps 676 mmHg 27%
    15:00 +21°C° 0 mm 9 mps 675 mmHg 27%
    16:00 +21°C° 0 mm 8 mps 675 mmHg 27%
    17:00 +20°C° 0 mm 8 mps 675 mmHg 29%
    18:00 +18°C° 0 mm 7 mps 675 mmHg 31%
    19:00 +17°C° 0 mm 7 mps 674 mmHg 33%
    20:00 +17°C° 0 mm 8 mps 674 mmHg 33%
    21:00 +17°C° 0 mm 8 mps 674 mmHg 33%
    22:00 +17°C° 0 mm 9 mps 674 mmHg 33%
    23:00 +17°C° 0.2 mm 10 mps 673 mmHg 35%

    Day after tomorrow, 18 January, Friday

    Time Temperature Precipitation Wind Pressure Humidity
    00:00 +17°C° 0.2 mm 11 mps 673 mmHg 37%
    01:00 +17°C° 0.2 mm 12 mps 672 mmHg 40%
    02:00 +17°C° 0.1 mm 12 mps 672 mmHg 40%
    03:00 +15°C° 0.1 mm 12 mps 671 mmHg 40%
    04:00 +15°C° 0.1 mm 12 mps 671 mmHg 41%
    05:00 +14°C° 0.5 mm 11 mps 672 mmHg 45%
    06:00 +14°C° 0.5 mm 10 mps 672 mmHg 49%
    07:00 +13°C° 0.5 mm 9 mps 673 mmHg 53%
    08:00 +12°C° 0.1 mm 9 mps 674 mmHg 44%
    09:00 +12°C° 0.1 mm 8 mps 674 mmHg 35%
    10:00 +11°C° 0.1 mm 7 mps 675 mmHg 26%
    11:00 +12°C° 0 mm 8 mps 675 mmHg 24%
    12:00 +12°C° 0 mm 9 mps 675 mmHg 23%
    13:00 +13°C° 0 mm 10 mps 675 mmHg 21%
    14:00 +12°C° 0 mm 9 mps 675 mmHg 26%
    15:00 +11°C° 0 mm 8 mps 675 mmHg 31%
    16:00 +10°C° 0 mm 7 mps 676 mmHg 36%
    17:00 +10°C° 0 mm 5 mps 676 mmHg 39%
    18:00 +10°C° 0 mm 3 mps 677 mmHg 42%
    19:00 +10°C° 0 mm 1 mps 677 mmHg 45%
    20:00 +10°C° 0 mm 1 mps 677 mmHg 46%
    21:00 +9°C° 0 mm 1 mps 677 mmHg 48%
    22:00 +9°C° 0 mm 1 mps 677 mmHg 49%
    23:00 +8°C° 0 mm 1 mps 677 mmHg 48%

    19 January, Saturday

    Time Temperature Precipitation Wind Pressure Humidity
    00:00 +8°C° 0 mm 1 mps 677 mmHg 47%
    01:00 +6°C° 0 mm 0 mps 677 mmHg 46%
    02:00 +7°C° 0 mm 1 mps 677 mmHg 46%
    03:00 +7°C° 0 mm 1 mps 676 mmHg 45%
    04:00 +6°C° 0 mm 1 mps 676 mmHg 45%
    05:00 +6°C° 0 mm 1 mps 676 mmHg 43%
    06:00 +6°C° 0 mm 1 mps 677 mmHg 42%
    07:00 +6°C° 0 mm 2 mps 677 mmHg 40%
    08:00 +7°C° 0 mm 2 mps 677 mmHg 38%
    09:00 +9°C° 0 mm 2 mps 677 mmHg 35%
    10:00 +10°C° 0 mm 3 mps 678 mmHg 33%
    11:00 +11°C° 0 mm 3 mps 677 mmHg 31%
    12:00 +12°C° 0 mm 3 mps 677 mmHg 28%
    13:00 +13°C° 0 mm 3 mps 676 mmHg 26%
    14:00 +13°C° 0 mm 4 mps 676 mmHg 31%
    15:00 +12°C° 0 mm 5 mps 676 mmHg 36%
    16:00 +10°C° 0 mm 6 mps 675 mmHg 41%
    17:00 +9°C° 0 mm 6 mps 676 mmHg 48%
    18:00 +7°C° 0 mm 6 mps 676 mmHg 56%
    19:00 +5°C° 0 mm 6 mps 677 mmHg 63%
    20:00 +5°C° 0 mm 5 mps 677 mmHg 64%
    21:00 +5°C° 0 mm 5 mps 677 mmHg 65%
    22:00 +5°C° 0 mm 5 mps 678 mmHg 66%
    23:00 +3°C° 0 mm 5 mps 678 mmHg 66%

    20 January, Sunday

    Time Temperature Precipitation Wind Pressure Humidity
    00:00 +3°C° 0 mm 5 mps 678 mmHg 67%
    01:00 +3°C° 0 mm 5 mps 678 mmHg 67%
    02:00 +3°C° 0 mm 5 mps 678 mmHg 67%
    03:00 +2°C° 0 mm 5 mps 678 mmHg 67%
    04:00 +2°C° 0 mm 5 mps 678 mmHg 68%
    05:00 +2°C° 0 mm 5 mps 679 mmHg 69%
    06:00 +1°C° 0 mm 5 mps 679 mmHg 69%
    07:00 +1°C° 0 mm 5 mps 680 mmHg 70%
    08:00 +1°C° 0 mm 5 mps 680 mmHg 66%
    09:00 +2°C° 0 mm 5 mps 681 mmHg 62%
    10:00 +3°C° 0 mm 5 mps 681 mmHg 57%
    11:00 +3°C° 0 mm 6 mps 681 mmHg 54%
    12:00 +4°C° 0 mm 6 mps 681 mmHg 50%
    13:00 +4°C° 0 mm 6 mps 681 mmHg 46%
    14:00 +4°C° 0 mm 7 mps 681 mmHg 47%
    15:00 +3°C° 0 mm 7 mps 681 mmHg 48%
    16:00 +3°C° 0 mm 7 mps 681 mmHg 49%
    17:00 +2°C° 0 mm 7 mps 681 mmHg 51%
    18:00 0°C° 0 mm 7 mps 682 mmHg 53%
    19:00 +1°C° 0 mm 6 mps 682 mmHg 55%
    20:00 +1°C° 0 mm 6 mps 682 mmHg 56%
    21:00 0°C° 0 mm 5 mps 683 mmHg 57%
    22:00 0°C° 0 mm 4 mps 683 mmHg 57%
    23:00 0°C° 0 mm 4 mps 682 mmHg 58%

    21 January, Monday

    Time Temperature Precipitation Wind Pressure Humidity
    00:00 +1°C° 0 mm 3 mps 682 mmHg 59%
    01:00 0°C° 0 mm 3 mps 682 mmHg 60%
    02:00 0°C° 0 mm 3 mps 682 mmHg 60%
    03:00 0°C° 0 mm 3 mps 682 mmHg 60%
    04:00 0°C° 0 mm 3 mps 682 mmHg 60%
    05:00 -1°C° 0 mm 3 mps 682 mmHg 61%
    06:00 -1°C° 0 mm 2 mps 682 mmHg 62%
    07:00 -1°C° 0 mm 2 mps 682 mmHg 62%
    08:00 +1°C° 0 mm 2 mps 682 mmHg 57%
    09:00 +3°C° 0 mm 2 mps 682 mmHg 51%
    10:00 +4°C° 0 mm 2 mps 682 mmHg 46%
    11:00 +5°C° 0 mm 2 mps 682 mmHg 43%
    12:00 +5°C° 0 mm 2 mps 681 mmHg 40%
    13:00 +6°C° 0 mm 2 mps 681 mmHg 38%
    14:00 +6°C° 0 mm 2 mps 680 mmHg 38%
    15:00 +6°C° 0 mm 2 mps 680 mmHg 39%
    16:00 +6°C° 0 mm 2 mps 680 mmHg 40%
    17:00 +6°C° 0 mm 2 mps 680 mmHg 45%
    18:00 +5°C° 0 mm 2 mps 680 mmHg 50%
    19:00 +4°C° 0 mm 2 mps 680 mmHg 55%
    20:00 +4°C° 0 mm 2 mps 680 mmHg 56%
    21:00 +4°C° 0 mm 1 mps 680 mmHg 57%
    22:00 +4°C° 0 mm 1 mps 680 mmHg 57%
    23:00 +4°C° 0 mm 1 mps 679 mmHg 57%
    Show more